SCP
1 1 1 1 1 1 0 0 0 0 0 0 0 0 0 0 0 0 0 0 0 0 0 0 0 0 0 0 0 1 1 1 1 1 0 0 0 0
1 1 1 1 1 1 1 1 1 0 0 0 0 0 0 0 0 0 0 0 0 0 0 0 0 0 0 0 0 0 0 1 1 1 1 0 0 0
1 1 1 1 1 1 1 1 1 1 0 0 0 0 0 0 0 0 0 0 0 0 0 0 0 0 0 0 0 0 0 0 1 1 1 1 0 0
1 1 1 1 1 1 1 1 1 1 1 1 0 0 0 0 0 0 0 0 0 0 0 0 0 0 0 0 0 0 0 0 0 0 1 1 1 0
1 1 1 1 1 1 1 1 1 1 1 1 0 0 0 0 0 0 0 0 0 0 0 0 0 0 0 0 0 0 0 0 0 0 0 0 0 0
1 1 1 1 1 1 1 1 1 1 1 0 0 0 0 0 0 0 0 0 0 0 0 0 0 0 0 0 0 0 0 0 0 0 0 0 0 0
0 1 1 0 0 0 0 0 0 0 0 0 0 0 0 0 0 0 0 0 0 0 0 0 0 0 0 0 0 0 0 0 0 0 0 0 0 0
0 0 0 0 0 0 0 0 0 0 0 0 0 0 0 0 0 0 0 0 0 0 0 0 0 0 0 0 0 0 0 0 0 0 0 0 0 0
0 0 0 0 0 0 0 0 0 0 0 0 0 0 0 0 0 0 0 0 0 0 0 0 0 0 0 0 0 0 0 0 0 0 0 0 0 0
0 0 0 0 0 0 0 0 0 0 0 0 0 0 0 0 0 0 0 0 0 0 0 0 0 0 0 0 0 0 0 0 0 0 0 0 0 0
0 0 0 0 0 0 0 0 0 0 0 0 0 0 0 0 0 0 0 0 0 0 0 0 0 0 0 0 0 0 0 0 0 0 0 0 0 0
0 0 0 0 0 0 0 0 0 0 0 0 0 0 0 0 0 0 0 0 0 0 0 0 0 0 0 0 0 0 0 0 0 0 0 0 0 0
0 0 0 0 0 0 0 0 0 0 0 0 0 0 0 0 0 0 0 0 0 0 0 0 0 0 0 0 0 0 0 0 0 0 0 0 0 0
0 0 0 0 0 0 0 0 0 0 0 0 0 0 0 0 0 0 0 0 0 0 0 0 0 0 0 0 0 0 0 0 0 0 0 0 0 0
0 0 0 0 0 0 0 0 0 0 0 0 0 0 0 0 0 0 0 0 0 0 0 0 0 0 0 0 0 0 0 0 0 0 0 0 0 0
0 0 0 0 0 0 0 0 0 0 0 0 0 0 0 0 0 0 0 0 0 0 0 0 0 0 0 0 0 0 0 0 0 0 0 0 0 0
0 0 0 0 0 0 0 0 0 0 0 0 0 0 0 0 0 0 0 0 0 0 0 0 0 0 0 0 0 0 0 0 0 0 0 0 0 0
0 0 0 0 0 0 0 0 0 0 0 0 0 0 0 0 0 0 0 0 0 0 0 0 0 0 0 0 0 0 0 0 0 0 0 0 0 0
0 0 0 0 0 0 0 0 0 0 0 0 0 0 0 0 0 0 0 0 0 0 0 0 0 0 0 0 0 0 0 0 0 0 0 0 0 0
0 0 0 0 0 0 0 0 0 0 0 0 0 0 0 0 0 0 0 0 0 0 0 0 0 0 0 0 0 0 0 0 0 0 0 0 0 0
0 0 0 0 0 0 0 0 0 0 0 0 0 0 0 0 0 0 0 0 0 0 0 0 0 0 0 0 0 0 0 0 0 0 0 0 0 0
0 0 0 0 0 0 0 0 0 0 0 0 0 0 0 0 0 0 0 0 0 0 0 0 0 0 0 0 0 0 0 0 0 0 0 0 0 0
0 0 0 0 0 0 0 0 0 0 0 0 0 0 0 0 0 0 0 0 0 0 0 0 0 0 0 0 0 0 0 0 0 0 0 0 0 0
Wind_Speed
4 4 4 3 3 3 3 4 4 3 3 2 1 1 1 1 3 3 3 6 7 7 7 7 7 7 7 7 7 7 6 6 6 5 5 4 3 3
2 3 3 2 2 2 2 2 3 4 3 2 2 1 1 2 4 3 3 7 7 8 8 8 8 9 8 8 7 7 6 6 6 5 4 4 3 3
2 2 3 2 2 2 2 2 2 2 3 2 1 1 2 2 3 3 3 3 4 8 8 9 9 9 8 8 8 7 6 6 6 5 5 4 4 4
2 2 3 2 2 2 1 2 2 2 3 3 1 1 2 3 3 4 4 4 4 7 9 9 9 9 8 8 7 7 6 6 5 5 5 5 4 4
2 2 2 2 2 1 1 1 1 2 2 3 2 1 1 2 3 4 5 3 4 6 8 8 8 9 8 8 8 7 6 6 5 5 4 4 4 3
0 0 0 1 2 1 1 2 2 2 2 3 3 2 2 2 3 4 3 2 3 3 4 5 6 7 8 8 8 7 6 5 5 4 3 3 3 2
1 1 1 2 2 1 1 1 2 2 2 3 3 2 2 3 3 3 4 3 2 2 2 2 2 2 3 5 6 6 6 5 4 4 3 3 2 2
1 1 2 2 3 3 3 3 3 3 3 3 2 3 3 3 3 4 4 4 2 1 2 2 2 2 1 1 3 5 5 5 4 3 3 2 2 2
1 1 1 2 2 1 3 4 3 4 5 5 4 3 4 5 6 5 5 4 3 3 3 2 1 1 1 2 4 4 4 3 3 3 3 3 3 3
1 1 1 1 2 2 3 3 3 2 2 3 3 3 4 4 6 6 6 5 3 2 3 3 1 1 1 1 3 4 3 3 3 2 2 1 1 1
1 2 2 1 3 4 4 3 3 2 4 5 5 5 5 6 6 5 5 5 3 1 1 2 2 1 1 0 1 4 4 3 3 2 2 1 0 1
2 2 3 3 3 3 3 3 2 1 2 3 4 4 3 3 5 5 6 5 3 2 2 3 2 3 1 1 1 1 2 3 3 3 3 3 2 0
1 1 1 3 3 3 3 2 3 3 2 3 2 2 2 2 2 2 2 4 4 2 3 4 3 2 3 1 1 1 1 1 1 2 3 4 4 3
2 0 0 2 2 3 2 2 4 4 3 3 2 2 1 1 1 2 3 3 3 3 4 5 3 4 4 2 1 1 1 2 2 2 2 2 4 5
1 2 1 2 2 1 2 3 4 3 3 3 2 1 1 1 2 2 3 4 5 3 3 3 4 4 3 3 2 2 1 1 2 2 2 2 2 2
1 2 3 4 3 3 2 2 1 2 3 2 2 1 1 2 2 2 3 3 3 3 3 2 3 4 3 3 3 2 2 2 2 2 2 2 3 3
2 1 1 1 1 1 1 1 1 1 2 2 2 2 2 2 2 2 2 3 3 2 1 2 2 2 3 3 3 2 1 1 1 1 1 2 3 3
3 1 1 1 1 1 1 1 1 1 1 2 2 2 2 2 2 2 2 3 3 2 1 1 2 3 3 2 1 3 1 1 1 1 1 1 3 3
2 1 2 2 1 1 1 1 1 1 1 2 2 2 2 2 2 2 2 2 2 1 1 1 2 3 2 0 4 1 3 2 1 1 1 2 3 4
1 1 1 1 1 2 2 2 2 1 1 2 2 2 2 3 3 2 2 2 2 1 0 0 1 2 4 3 2 3 3 3 2 2 2 2 3 4
1 1 1 1 2 2 2 2 2 2 2 2 2 2 2 3 3 2 2 3 2 1 1 2 3 2 2 2 1 2 3 4 5 4 3 1 2 2
1 1 1 1 2 2 2 2 2 2 2 2 2 2 2 2 3 3 3 2 2 1 1 2 1 1 2 2 2 2 3 3 3 4 6 7 4 4
1 1 1 1 2 2 2 2 3 2 2 2 2 2 2 2 2 2 2 2 1 1 1 0 1 0 1 1 2 2 3 2 2 2 4 7 8 10
Wind_Direction
228 230 232 236 218 214 205 191 189 216 239 228 223 266 197 159 165 162 156 157 160 155 152 149 147 146 143 141 136 132 129 125 121 118 115 112 111 109
222 230 241 245 230 219 211 210 198 195 220 222 209 199 162 152 141 139 137 137 139 139 138 136 133 132 133 130 127 129 130 130 129 128 126 120 113 104
239 232 242 237 231 233 225 215 207 184 202 232 204 148 141 141 117 111 113 116 125 129 132 132 131 131 129 128 129 128 125 125 127 127 123 113 103 97
243 240 251 243 234 236 226 222 214 191 180 198 200 154 131 143 128 123 117 116 111 116 120 122 122 123 126 128 124 123 123 122 120 117 115 110 104 95
244 237 248 228 240 244 221 220 219 190 164 170 192 179 121 131 118 111 103 92 108 113 115 117 123 125 121 122 125 127 125 122 118 113 112 111 104 96
295 203 227 199 212 214 217 218 192 163 153 158 169 156 125 122 127 124 113 96 104 109 109 115 123 129 129 129 131 135 136 134 129 121 116 111 103 96
50 53 70 84 95 134 163 185 177 171 165 166 164 137 138 143 158 143 136 119 84 90 98 98 110 106 126 141 141 141 143 144 138 129 118 109 108 107
102 59 56 47 55 66 80 103 138 155 161 157 165 166 174 169 152 152 144 141 155 176 126 104 101 113 126 135 148 148 144 141 144 145 137 120 106 97
110 99 77 59 51 52 62 68 78 110 137 154 163 182 178 181 165 159 162 155 159 168 138 129 118 128 187 163 163 163 158 146 138 133 120 105 94 84
89 108 109 52 58 78 79 67 57 54 109 135 157 169 169 170 172 167 160 135 97 109 128 138 155 177 185 138 180 182 183 178 170 163 147 119 82 67
55 68 98 86 74 88 93 87 66 39 63 87 98 100 112 133 144 134 133 135 134 161 151 133 146 126 81 267 218 207 209 212 214 218 227 247 285 28
54 58 73 94 100 109 115 118 113 86 80 66 62 59 73 105 130 157 162 157 143 158 181 142 139 127 112 308 245 218 219 236 240 247 252 251 242 152
105 46 41 88 100 114 125 139 161 140 107 96 83 64 56 66 93 117 144 150 145 159 176 147 139 133 135 156 265 222 200 217 229 251 254 250 243 211
157 192 81 85 100 116 125 125 121 115 104 96 91 86 87 90 91 99 105 105 122 151 161 147 137 148 133 123 196 253 234 218 204 231 246 258 257 245
149 139 105 83 76 86 105 112 115 111 117 119 129 138 129 121 96 79 68 73 65 74 113 127 131 139 138 148 164 180 209 246 212 216 239 235 234 228
116 89 72 73 75 72 72 87 105 132 139 144 147 130 98 94 96 96 94 84 71 36 28 69 119 134 132 138 146 162 179 203 222 222 227 255 257 235
129 80 57 66 70 44 38 48 72 91 107 111 116 111 105 104 97 94 101 100 102 105 48 27 54 90 126 140 141 170 178 210 218 207 199 272 278 256
128 135 162 171 171 170 157 116 78 109 125 124 129 136 139 136 120 99 103 116 121 122 122 94 76 62 41 3 189 169 183 213 238 223 175 195 277 278
133 161 178 183 176 165 163 151 150 145 130 130 135 139 138 132 127 124 120 114 113 119 153 142 121 119 117 294 306 217 175 202 207 250 225 202 232 261
137 172 185 180 171 167 164 154 143 130 124 127 130 131 133 133 132 135 140 143 137 130 116 83 153 160 172 190 225 272 216 185 190 217 244 255 267 282
211 201 190 181 172 168 164 159 152 148 143 135 134 138 140 136 140 151 152 146 134 138 175 237 247 218 147 97 56 303 283 237 202 196 199 222 298 316
227 220 202 188 176 168 163 156 151 149 148 143 149 149 147 145 150 149 147 146 154 173 211 256 297 83 103 142 212 257 285 300 284 255 226 198 188 212
195 199 194 187 172 155 151 153 156 160 163 160 153 153 152 154 155 147 145 148 153 181 189 259 347 43 194 191 209 249 270 278 295 312 291 267 248 245